Weather History for PHOG - April, 2013

Change the Weather History Date:

Thursday, April 4, 2013

  Actual Average Record
Temperature  
Mean Temperature 72 °F 74 °F  
Max Temperature 85 °F 82 °F 89 °F (1953)
Min Temperature 58 °F 66 °F 54 °F (1985)
Degree Days  
Heating Degree Days 0 0  
Month to date heating degree days 0 0  
Since 1 July heating degree days 0 0  
Cooling Degree Days 7 9  
Month to date cooling degree days 21 36  
Year to date cooling degree days 687 690  
Growing Degree Days 20 (Base 50)    
Moisture  
Dew Point 62 °F    
Average Humidity 76    
Maximum Humidity 100    
Minimum Humidity 51    
Precipitation  
Precipitation T in 0.07 in 0.80 in (1977)
Month to date precipitation T 0.29  
Year to date precipitation 6.13 7.50  
Snow  
Snow 0.00 in - - ()
Month to date snowfall 0.0  
Since 1 July snowfall 0.0  
Snow Depth 0.00 in    
Sea Level Pressure  
Sea Level Pressure 30.07 in    
Wind  
Wind Speed 6 mph (ENE)    
Max Wind Speed 20 mph    
Max Gust Speed 23 mph    
Visibility 10 miles    
Events      
T = Trace of Precipitation, MM = Missing Value Source: NWS Daily Summary

Daily Weather History Graph

Daily Weather History Graph

Search for Another Location

Airport or City:

Trip Planner

Search our weather history database for the weather conditions in past years. The results will help you decide how hot, cold, wet, or windy it might be!

Date:

Astronomy

Apr. 04, 2013 Rise Set
Actual Time 6:15 AM HST 6:41 PM HST
Civil Twilight 5:53 AM HST 7:03 PM HST
Nautical Twilight 5:27 AM HST 7:29 PM HST
Astronomical Twilight 5:01 AM HST 7:56 PM HST
Moon 2:09 AM HST (4/4) 1:50 PM HST (4/4)
Length of Visible Light 13h 10m
Length of Day
12h 25m
Waning Crescent, 31% of the Moon is Illuminated
Apr 4
Waning Crescent
Apr 9
New
Apr 18
First Quarter
Apr 25
Full
May 2
Last Quarter

Hourly Weather History & Observations

Time (HST) Temp. Heat Index Dew Point Humidity Pressure Visibility Wind Dir Wind Speed Gust Speed Precip Events Conditions
12:54 AM 61.0 °F - 59.0 °F 93% 30.09 in 10.0 mi Calm Calm - N/A   Clear
1:54 AM 61.0 °F - 57.9 °F 90% 30.06 in 10.0 mi SSE 5.8 mph - N/A   Clear
2:54 AM 60.1 °F - 57.9 °F 93% 30.05 in 10.0 mi Calm Calm - N/A   Clear
3:54 AM 64.0 °F - 61.0 °F 90% 30.04 in 10.0 mi Variable 6.9 mph - N/A   Clear
4:54 AM 57.9 °F - 57.0 °F 97% 30.05 in 10.0 mi SE 5.8 mph - N/A   Clear
5:54 AM 61.0 °F - 57.9 °F 90% 30.06 in 10.0 mi ESE 5.8 mph - N/A   Scattered Clouds
6:54 AM 61.0 °F - 59.0 °F 93% 30.09 in 10.0 mi Calm Calm - N/A   Scattered Clouds
7:54 AM 69.1 °F - 61.0 °F 75% 30.10 in 10.0 mi ESE 5.8 mph - N/A   Scattered Clouds
8:54 AM 75.0 °F - 60.1 °F 60% 30.11 in 10.0 mi Calm Calm - N/A   Scattered Clouds
9:54 AM 79.0 °F - 62.1 °F 56% 30.11 in 10.0 mi ENE 4.6 mph - N/A   Scattered Clouds
10:54 AM 80.1 °F 80.9 °F 60.1 °F 50% 30.09 in 10.0 mi Calm Calm - N/A   Partly Cloudy
11:54 AM 82.0 °F 83.1 °F 63.0 °F 52% 30.08 in 10.0 mi NE 12.7 mph 19.6 mph 0.00 in   Scattered Clouds
12:54 PM 84.0 °F 85.4 °F 64.0 °F 51% 30.06 in 10.0 mi NE 16.1 mph - N/A   Scattered Clouds
1:54 PM 82.9 °F 84.0 °F 63.0 °F 51% 30.04 in 10.0 mi NE 17.3 mph 20.7 mph N/A   Scattered Clouds
2:54 PM 82.0 °F 83.8 °F 64.9 °F 56% 30.03 in 10.0 mi NE 15.0 mph 21.9 mph N/A   Scattered Clouds
3:54 PM 81.0 °F 83.0 °F 66.0 °F 60% 30.02 in 10.0 mi NE 12.7 mph - N/A   Partly Cloudy
4:54 PM 80.1 °F 81.7 °F 64.0 °F 58% 30.02 in 10.0 mi ENE 6.9 mph - N/A   Scattered Clouds
5:54 PM 78.1 °F - 64.9 °F 64% 30.03 in 10.0 mi NE 8.1 mph - N/A   Partly Cloudy
6:54 PM 73.9 °F - 64.9 °F 73% 30.05 in 10.0 mi NE 4.6 mph - N/A   Partly Cloudy
7:54 PM 73.0 °F - 66.0 °F 79% 30.07 in 10.0 mi Variable 4.6 mph - N/A   Scattered Clouds
8:54 PM 72.0 °F - 68.0 °F 87% 30.09 in 10.0 mi Calm Calm - N/A   Partly Cloudy
9:54 PM 69.1 °F - 66.0 °F 90% 30.12 in 10.0 mi SSE 5.8 mph - N/A   Clear
10:54 PM 66.9 °F - 64.0 °F 90% 30.12 in 10.0 mi Calm Calm - N/A   Clear
11:54 PM 71.1 °F - 66.9 °F 87% 30.10 in 10.0 mi NE 9.2 mph - N/A   Mostly Cloudy